When you browse on this site, cookies collect data to enhance your experience and personalize the content and advertising you see.
Visit our Privacy Policy to learn more. By continuing to use the site, you agree to this use of cookies and data.
  • In Hungary
  • List of Countries
  • For 7 days
  • Water Temperature
  • Weather Map
  • News
  • Weather Widgets
  • user-avatar
    Login

    Hourly Weather Amoroto

    Today, 8 December, Sunday

    Time Temperature Precipitation Wind Pressure Humidity
    00:00 +10°C° 0 mm 2 mps 756 mmHg 81%
    01:00 +10°C° 0 mm 2 mps 756 mmHg 82%
    02:00 +9°C° 0 mm 2 mps 755 mmHg 83%
    03:00 +9°C° 0 mm 3 mps 755 mmHg 84%
    04:00 +9°C° 0 mm 3 mps 755 mmHg 83%
    05:00 +8°C° 0 mm 3 mps 755 mmHg 83%
    06:00 +7°C° 0 mm 4 mps 755 mmHg 83%
    07:00 +8°C° 0 mm 4 mps 755 mmHg 80%
    08:00 +10°C° 0 mm 4 mps 755 mmHg 78%
    09:00 +11°C° 0 mm 4 mps 755 mmHg 75%
    10:00 +11°C° 0.4 mm 4 mps 754 mmHg 78%
    11:00 +11°C° 0.4 mm 4 mps 754 mmHg 82%
    12:00 +11°C° 0.4 mm 4 mps 754 mmHg 86%
    13:00 +11°C° 1.6 mm 4 mps 754 mmHg 89%
    14:00 +10°C° 1.6 mm 4 mps 754 mmHg 92%
    15:00 +10°C° 1.6 mm 4 mps 754 mmHg 95%
    16:00 +9°C° 0.1 mm 5 mps 755 mmHg 95%
    17:00 +10°C° 0.1 mm 5 mps 755 mmHg 95%
    18:00 +10°C° 0.1 mm 5 mps 756 mmHg 95%
    19:00 +9°C° 0 mm 5 mps 756 mmHg 95%
    20:00 +9°C° 0 mm 5 mps 757 mmHg 95%
    21:00 +9°C° 0 mm 5 mps 757 mmHg 96%
    22:00 +8°C° 0 mm 5 mps 757 mmHg 96%
    23:00 +8°C° 0 mm 5 mps 758 mmHg 95%

    Tomorrow, 9 December, Monday

    Time Temperature Precipitation Wind Pressure Humidity
    00:00 +7°C° 0 mm 5 mps 758 mmHg 95%
    01:00 +7°C° 0 mm 6 mps 758 mmHg 95%
    02:00 +7°C° 0 mm 6 mps 758 mmHg 95%
    03:00 +6°C° 0 mm 7 mps 758 mmHg 95%
    04:00 +8°C° 0.2 mm 7 mps 758 mmHg 94%
    05:00 +8°C° 0.2 mm 7 mps 758 mmHg 92%
    06:00 +7°C° 0.2 mm 8 mps 759 mmHg 91%
    07:00 +7°C° 0.4 mm 8 mps 759 mmHg 91%
    08:00 +8°C° 0.4 mm 7 mps 760 mmHg 91%
    09:00 +8°C° 0.4 mm 7 mps 760 mmHg 91%
    10:00 +8°C° 0.2 mm 7 mps 760 mmHg 91%
    11:00 +9°C° 0.2 mm 7 mps 760 mmHg 90%
    12:00 +9°C° 0.2 mm 7 mps 761 mmHg 90%
    13:00 +9°C° 0.1 mm 7 mps 760 mmHg 90%
    14:00 +9°C° 0.1 mm 6 mps 760 mmHg 89%
    15:00 +9°C° 0.1 mm 6 mps 760 mmHg 89%
    16:00 +9°C° 0.1 mm 6 mps 761 mmHg 89%
    17:00 +9°C° 0.1 mm 5 mps 761 mmHg 90%
    18:00 +8°C° 0.1 mm 5 mps 762 mmHg 91%
    19:00 +8°C° 0.1 mm 4 mps 762 mmHg 91%
    20:00 +9°C° 0.1 mm 3 mps 762 mmHg 91%
    21:00 +8°C° 0.1 mm 3 mps 762 mmHg 92%
    22:00 +8°C° 0 mm 2 mps 762 mmHg 92%
    23:00 +7°C° 0 mm 2 mps 762 mmHg 93%

    Day after tomorrow, 10 December, Tuesday

    Time Temperature Precipitation Wind Pressure Humidity
    00:00 +7°C° 0 mm 2 mps 762 mmHg 94%
    01:00 +7°C° 0 mm 2 mps 762 mmHg 93%
    02:00 +7°C° 0 mm 2 mps 761 mmHg 93%
    03:00 +7°C° 0 mm 2 mps 761 mmHg 93%
    04:00 +6°C° 0 mm 2 mps 760 mmHg 93%
    05:00 +6°C° 0 mm 2 mps 760 mmHg 93%
    06:00 +6°C° 0 mm 2 mps 759 mmHg 93%
    07:00 +6°C° 0 mm 2 mps 759 mmHg 91%
    08:00 +7°C° 0 mm 2 mps 759 mmHg 89%
    09:00 +7°C° 0 mm 2 mps 759 mmHg 88%
    10:00 +9°C° 0 mm 2 mps 758 mmHg 81%
    11:00 +12°C° 0 mm 2 mps 758 mmHg 75%
    12:00 +14°C° 0 mm 2 mps 757 mmHg 69%
    13:00 +14°C° 0 mm 2 mps 757 mmHg 70%
    14:00 +14°C° 0 mm 2 mps 756 mmHg 71%
    15:00 +14°C° 0 mm 2 mps 755 mmHg 71%
    16:00 +13°C° 0 mm 2 mps 755 mmHg 71%
    17:00 +12°C° 0 mm 2 mps 755 mmHg 70%
    18:00 +10°C° 0 mm 2 mps 755 mmHg 69%
    19:00 +9°C° 0 mm 2 mps 755 mmHg 69%
    20:00 +9°C° 0 mm 3 mps 755 mmHg 68%
    21:00 +9°C° 0 mm 3 mps 755 mmHg 67%
    22:00 +9°C° 0 mm 3 mps 755 mmHg 66%
    23:00 +9°C° 0 mm 3 mps 754 mmHg 66%

    11 December, Wednesday

    Time Temperature Precipitation Wind Pressure Humidity
    00:00 +8°C° 0 mm 3 mps 754 mmHg 66%
    01:00 +8°C° 0 mm 3 mps 754 mmHg 66%
    02:00 +8°C° 0 mm 3 mps 754 mmHg 67%
    03:00 +8°C° 0 mm 3 mps 753 mmHg 68%
    04:00 +8°C° 0.3 mm 3 mps 753 mmHg 70%
    05:00 +8°C° 0.3 mm 3 mps 754 mmHg 73%
    06:00 +7°C° 0.3 mm 4 mps 754 mmHg 76%
    07:00 +7°C° 0.8 mm 4 mps 755 mmHg 82%
    08:00 +7°C° 0.8 mm 5 mps 755 mmHg 87%
    09:00 +8°C° 0.8 mm 5 mps 756 mmHg 93%
    10:00 +8°C° 0.2 mm 6 mps 756 mmHg 90%
    11:00 +8°C° 0.2 mm 6 mps 757 mmHg 87%
    12:00 +8°C° 0.2 mm 7 mps 757 mmHg 84%
    13:00 +8°C° 0.1 mm 7 mps 757 mmHg 82%
    14:00 +8°C° 0.1 mm 7 mps 757 mmHg 80%
    15:00 +8°C° 0.1 mm 7 mps 757 mmHg 77%
    16:00 +7°C° 0 mm 6 mps 757 mmHg 80%
    17:00 +5°C° 0 mm 6 mps 757 mmHg 83%
    18:00 +5°C° 0 mm 5 mps 757 mmHg 86%
    19:00 +3°C° 0 mm 5 mps 757 mmHg 86%
    20:00 +3°C° 0 mm 5 mps 757 mmHg 85%
    21:00 +3°C° 0 mm 6 mps 758 mmHg 85%
    22:00 +4°C° 0.1 mm 6 mps 757 mmHg 83%
    23:00 +4°C° 0.1 mm 6 mps 757 mmHg 81%

    12 December, Thursday

    Time Temperature Precipitation Wind Pressure Humidity
    00:00 +5°C° 0.1 mm 6 mps 757 mmHg 80%
    01:00 +5°C° 0.2 mm 6 mps 757 mmHg 80%
    02:00 +5°C° 0.2 mm 6 mps 757 mmHg 80%
    03:00 +5°C° 0.2 mm 6 mps 756 mmHg 80%
    04:00 +5°C° 0.2 mm 6 mps 756 mmHg 80%
    05:00 +5°C° 0.2 mm 6 mps 756 mmHg 80%
    06:00 +6°C° 0.2 mm 5 mps 756 mmHg 80%
    07:00 +6°C° 0.1 mm 5 mps 756 mmHg 79%
    08:00 +6°C° 0.1 mm 5 mps 756 mmHg 77%
    09:00 +6°C° 0.1 mm 5 mps 756 mmHg 75%
    10:00 +7°C° 0 mm 5 mps 755 mmHg 72%
    11:00 +8°C° 0 mm 5 mps 755 mmHg 69%
    12:00 +9°C° 0 mm 5 mps 754 mmHg 66%
    13:00 +9°C° 0 mm 5 mps 754 mmHg 65%
    14:00 +10°C° 0 mm 5 mps 753 mmHg 65%
    15:00 +10°C° 0 mm 5 mps 753 mmHg 64%
    16:00 +10°C° 0 mm 6 mps 752 mmHg 65%
    17:00 +9°C° 0 mm 6 mps 752 mmHg 66%
    18:00 +9°C° 0 mm 7 mps 751 mmHg 66%
    19:00 +9°C° 0 mm 7 mps 751 mmHg 67%
    20:00 +10°C° 0 mm 7 mps 751 mmHg 68%
    21:00 +10°C° 0 mm 7 mps 750 mmHg 69%
    22:00 +10°C° 0.1 mm 7 mps 750 mmHg 71%
    23:00 +10°C° 0.1 mm 7 mps 750 mmHg 74%

    13 December, Friday

    Time Temperature Precipitation Wind Pressure Humidity
    00:00 +10°C° 0.1 mm 7 mps 750 mmHg 77%
    01:00 +11°C° 0 mm 7 mps 750 mmHg 77%
    02:00 +11°C° 0 mm 6 mps 750 mmHg 77%
    03:00 +11°C° 0 mm 6 mps 749 mmHg 78%
    04:00 +11°C° 0 mm 6 mps 750 mmHg 78%
    05:00 +12°C° 0 mm 5 mps 750 mmHg 79%
    06:00 +12°C° 0 mm 5 mps 750 mmHg 80%
    07:00 +12°C° 0 mm 5 mps 750 mmHg 77%
    08:00 +13°C° 0 mm 5 mps 751 mmHg 74%
    09:00 +13°C° 0 mm 5 mps 751 mmHg 71%
    10:00 +13°C° 0 mm 5 mps 751 mmHg 69%
    11:00 +14°C° 0 mm 5 mps 751 mmHg 68%
    12:00 +14°C° 0 mm 5 mps 751 mmHg 66%
    13:00 +15°C° 0 mm 5 mps 751 mmHg 66%
    14:00 +15°C° 0 mm 5 mps 750 mmHg 66%
    15:00 +16°C° 0 mm 5 mps 750 mmHg 66%
    16:00 +14°C° 0 mm 5 mps 750 mmHg 71%
    17:00 +13°C° 0 mm 4 mps 751 mmHg 77%
    18:00 +12°C° 0 mm 4 mps 751 mmHg 83%
    19:00 +12°C° 0 mm 4 mps 751 mmHg 83%
    20:00 +11°C° 0 mm 4 mps 751 mmHg 83%
    21:00 +11°C° 0 mm 4 mps 751 mmHg 83%
    22:00 +11°C° 0 mm 3 mps 751 mmHg 83%
    23:00 +11°C° 0 mm 3 mps 752 mmHg 82%
    Show more